Regional Weather Roundup
Issued by NWS Raleigh/Durham, NC

Home | Current Version | Previous Version | Text Only | Print | Product List | Glossary On
Versions: 1 2 3 4 5 6 7 8 9 10 11 12 13 14 15 16 17 18 19 20 21 22 23 24 25 26 27 28 29 30 31 32 33 34 35 36 37 38 39 40 41 42 43 44 45 46 47 48 49 50
000
ASUS42 KRAH 300310
RWRRAH
NORTH CAROLINA WEATHER ROUNDUP
NATIONAL WEATHER SERVICE RALEIGH NC
1100 PM EDT THU SEP 29 2016

NOTE: "FAIR" INDICATES FEW OR NO CLOUDS BELOW 12,000 FEET WITH NO
SIGNIFICANT WEATHER AND/OR OBSTRUCTIONS TO VISIBILITY.

NCZ001-053-055-056-065-067-300400-
WESTERN NORTH CAROLINA

CITY           SKY/WX    TMP DP  RH WIND       PRES   REMARKS
ASHEVILLE      CLEAR     58  50  75 N10       30.06F
JEFFERSON      HVY RAIN  56  55  95 N5        30.08R
MORGANTON      PTCLDY    61  60  99 CALM      30.05R
HICKORY        PTCLDY    67  65  93 VRB3      29.99F THUNDER
RUTHERFORDTON  PTCLDY    63  63 100 NW3       30.00S
MOUNT AIRY     CLOUDY    68  65  90 CALM      30.05R
BOONE          PTCLDY    55  54  96 W10       30.10S
$$

NCZ021-022-025-041-071-084-088-300400-
CENTRAL NORTH CAROLINA

CITY           SKY/WX    TMP DP  RH WIND       PRES   REMARKS
CHARLOTTE      PTCLDY    72  66  81 SE10      29.98S
GREENSBORO     CLOUDY    71  68  90 SE8       30.03S
WINSTON-SALEM  CLOUDY    70  66  87 SE12      30.03S
RALEIGH-DURHAM MOCLDY    73  70  90 E7        30.04R
FORT BRAGG     MOCLDY    72  72 100 CALM      30.00S
FAYETTEVILLE   PTCLDY    72  70  93 E6        30.01S
BURLINGTON     CLOUDY    70  70 100 CALM      30.03F
LAURINBURG     CLOUDY    70  69  97 E6        30.01S
$$

NCZ011-015-027-028-043-044-047-080-103-300400-
NORTHEASTERN NORTH CAROLINA

CITY           SKY/WX    TMP DP  RH WIND       PRES   REMARKS
ROCKY MT-WILSO MOCLDY    71  71 100 VRB3      30.05S
GREENVILLE     PTCLDY    72  72 100 CALM      30.06S
WASHINGTON     PTCLDY    71  70  98 E3        30.05S
ELIZABETH CITY MOCLDY    72  71  97 CALM      30.06S
MANTEO         MOCLDY    73  73 100 CALM      30.05S
CAPE HATTERAS  MOCLDY    78  73  84 S7        30.05R
$$

NCZ078-087-090-091-093-098-101-300400-
SOUTHEASTERN NORTH CAROLINA

CITY           SKY/WX    TMP DP  RH WIND       PRES   REMARKS
LUMBERTON      FOG       71  70  96 SE3       30.00S VSB 1/4
GOLDSBORO      CLEAR     72  72 100 E6        30.02R
KINSTON        CLEAR     73  72  95 E3        30.04S
KENANSVILLE    CLEAR     72  72 100 CALM      30.04R
NEW BERN       CLEAR     71  69  93 CALM      30.05F
CHERRY POINT   CLEAR     71  69  93 CALM      30.05S
BEAUFORT       CLEAR     78  74  87 S8        30.04S
JACKSONVILLE   CLEAR     75  73  93 SE3       30.03S
WILMINGTON     CLEAR     77  72  84 S5        30.02R
$$




USA.gov is the U.S. government's official web portal to all federal, state and local government web resources and services.